Preview of NWS' New Version of Forecast
This preview is not operational and should not be used for support decisions.

Regional Weather Roundup (RWR)

Issued by National Weather Service (NWS)

                            
000
ASUS44 KMEG 211700
RWRTN 
TENNESSEE HOURLY STATE WEATHER ROUNDUP
NATIONAL WEATHER SERVICE MEMPHIS TN
1100 AM CST THU FEB 21 2019

TNZ002-004-019-021-049-052-054-088>092-211800-
WEST TENNESSEE
  
CITY           SKY/WX    TMP DP  RH WIND       PRES   REMARKS
MEMPHIS INTL   CLOUDY    46  39  76 NE13      30.19R                  
NWS MEMPHIS      N/A     44 N/A N/A MISG        N/A                   
JACKSON        CLOUDY    43  41  93 NE7       30.20S                  
DYERSBURG      FAIR      46  40  79 E9        30.21R                  
$$

TNZ008-025-027-028-033-062-065-066-211800-
NORTH MIDDLE TENNESSEE
  
CITY           SKY/WX    TMP DP  RH WIND       PRES   REMARKS
NASHVILLE      FAIR      52  39  61 NE7       30.20S                  
CLARKSVILLE    FAIR      49  37  63 SE3       30.21S                  
SMYRNA         FAIR      50  41  71 E3        30.21S                  
CROSSVILLE     CLOUDY    45  41  86 NE6       30.16F                  
$$

TNZ061-075-076-078-094-096-097-211800-
SOUTH MIDDLE TENNESSEE
  
CITY           SKY/WX    TMP DP  RH WIND       PRES   REMARKS
$$

TNZ017-018-042-046-047-211800-
NORTHEAST TENNESSEE
  
CITY           SKY/WX    TMP DP  RH WIND       PRES   REMARKS
TRI CITIES     LGT RAIN  52  52 100 CALM      30.15F FOG              
$$

TNZ012-013-036-069-073-074-211800-
CENTRAL EAST TENNESSEE
  
CITY           SKY/WX    TMP DP  RH WIND       PRES   REMARKS
KNOXVILLE      DRIZZLE   51  48  89 N7        30.15S FOG              
OAK RIDGE      CLOUDY    50  46  86 VRB5      30.18R                  
$$

TNZ083-085-099-211800-
SOUTHEAST TENNESSEE
  
CITY           SKY/WX    TMP DP  RH WIND       PRES   REMARKS
CHATTANOOGA    CLOUDY    54  49  83 N7        30.15F HAZE             
$$

SKY/WX REPORTED AS FAIR MEANS FEW OR NO CLOUDS BELOW
12 THOUSAND FEET.